Moses Lake, WA

6:55 PM PDT on April 28, 2017 (GMT -0700)
Grant County International

Weather History for KMWH - June, 2015

Change the Weather History Date:

Saturday, June 13, 2015

  Actual Average Record
Temperature  
Mean Temperature 62 °F 65 °F  
Max Temperature 78 °F 79 °F 93 °F (1986)
Min Temperature 45 °F 52 °F 43 °F (2001)
Degree Days  
Heating Degree Days 3 2  
Month to date heating degree days 4 33  
Since 1 June heating degree days 4 33  
Since 1 July heating degree days 4796 5860  
Cooling Degree Days 0 2  
Month to date cooling degree days 105 26  
Year to date cooling degree days 176 51  
Since 1 June cooling degree days 105 26  
Growing Degree Days 13 (Base 50)    
Moisture  
Dew Point 31 °F    
Average Humidity 32    
Maximum Humidity 48    
Minimum Humidity 16    
Precipitation  
Precipitation 0.00 in 0.03 in 0.44 in (1984)
Month to date precipitation 0.02 0.41  
Year to date precipitation 3.17 4.43  
Sea Level Pressure  
Sea Level Pressure 29.98 in    
Wind  
Wind Speed 5 mph (West)    
Max Wind Speed 14 mph    
Max Gust Speed 19 mph    
Visibility 10 miles    
Events      
T = Trace of Precipitation, MM = Missing Value Source: NWS Daily Summary

Daily Weather History Graph

Daily Weather History Graph

Search for Another Location

Airport or City:

Trip Planner

Search our weather history database for the weather conditions in past years. The results will help you decide how hot, cold, wet, or windy it might be!

Date:

Astronomy

Jun. 13, 2015 Rise Set
Actual Time 5:00 AM PDT 8:54 PM PDT
Civil Twilight 4:20 AM PDT 9:34 PM PDT
Nautical Twilight 3:26 AM PDT 10:28 PM PDT
Astronomical Twilight 2:04 AM PDT 11:51 PM PDT
Moon 3:17 AM PDT (6/13) 5:47 PM PDT (6/13)
Length of Visible Light 17h 13m
Length of Day
15h 53m
Waning Crescent, 9% of the Moon is Illuminated
Jun 13
Waning Crescent
Jun 16
New
Jun 24
First Quarter
Jul 1
Full
Jul 8
Last Quarter

Hourly Weather History & Observations

Time (PDT) Temp. Dew Point Humidity Pressure Visibility Wind Dir Wind Speed Gust Speed Precip Events Conditions
12:52 AM 52.0 °F 27.0 °F 38% 30.03 in 10.0 mi NW 9.2 mph - N/A   Clear
1:52 AM 51.8 °F 28.4 °F 41% 30.02 in 10.0 mi NNW 6.9 mph - N/A   Clear
2:52 AM 48.9 °F 28.9 °F 46% 30.02 in 10.0 mi NNW 5.8 mph - N/A   Clear
3:52 AM 51.1 °F 32.0 °F 48% 30.03 in 10.0 mi Calm Calm - N/A   Clear
4:52 AM 48.0 °F 28.0 °F 46% 30.03 in 10.0 mi WNW 6.9 mph - N/A   Clear
5:52 AM 51.1 °F 30.0 °F 44% 30.03 in 10.0 mi Calm Calm - N/A   Clear
6:52 AM 55.9 °F 32.0 °F 40% 30.03 in 10.0 mi Calm Calm - N/A   Clear
7:52 AM 62.6 °F 33.8 °F 34% 30.04 in 10.0 mi North 3.5 mph - N/A   Clear
8:52 AM 66.0 °F 32.0 °F 28% 30.02 in 10.0 mi Variable 5.8 mph - N/A   Clear
9:52 AM 69.1 °F 30.0 °F 23% 30.01 in 10.0 mi Calm Calm - N/A   Clear
10:52 AM 70.0 °F 35.1 °F 28% 30.01 in 10.0 mi SSW 5.8 mph - N/A   Clear
11:52 AM 71.1 °F 32.0 °F 24% 29.99 in 10.0 mi Variable 3.5 mph - N/A   Clear
12:52 PM 75.0 °F 30.9 °F 20% 29.99 in 10.0 mi SW 11.5 mph - N/A   Clear
1:52 PM 75.9 °F 30.9 °F 19% 29.98 in 10.0 mi North - - N/A   Clear
2:52 PM 75.9 °F 30.0 °F 19% 29.96 in 10.0 mi SSW 6.9 mph - N/A   Clear
3:52 PM 77.0 °F 30.0 °F 18% 29.95 in 10.0 mi SSW 12.7 mph - N/A   Clear
4:52 PM 78.1 °F 28.9 °F 17% 29.94 in 10.0 mi WSW 8.1 mph - N/A   Clear
5:52 PM 77.0 °F 28.9 °F 17% 29.92 in 10.0 mi Calm Calm - N/A   Clear
6:52 PM 75.9 °F 30.0 °F 19% 29.91 in 10.0 mi SW 8.1 mph - N/A   Clear
7:52 PM 75.0 °F 32.0 °F 21% 29.91 in 10.0 mi WSW 9.2 mph - N/A   Clear
8:52 PM 73.0 °F 33.1 °F 23% 29.91 in 10.0 mi SW 6.9 mph - N/A   Clear
9:52 PM 71.1 °F 30.9 °F 23% 29.93 in 10.0 mi WSW 6.9 mph - N/A   Clear
10:52 PM 62.1 °F 36.0 °F 38% 29.94 in 10.0 mi NNE 5.8 mph - N/A   Clear
11:52 PM 57.0 °F 35.1 °F 44% 29.95 in 10.0 mi North 3.5 mph - N/A   Clear